Weather History for KPRN - April, 2014

Change the Weather History Date:

Sunday, April 20, 2014

  Actual Average Record
Temperature  
Mean Temperature 63 °F -  
Max Temperature 73 °F 80 °F 92 °F (1987)
Min Temperature 53 °F 53 °F 35 °F (1953)
Degree Days  
Heating Degree Days 2    
Growing Degree Days 13 (Base 50)    
Moisture  
Dew Point 51 °F    
Average Humidity 71    
Maximum Humidity 90    
Minimum Humidity 49    
Precipitation  
Precipitation 0.00 in - - ()
Sea Level Pressure  
Sea Level Pressure 30.15 in    
Wind  
Wind Speed 6 mph (ENE)    
Max Wind Speed 13 mph    
Max Gust Speed 20 mph    
Visibility 10 miles    
Events      
Averages and records for this station are not official NWS values.
T = Trace of Precipitation, MM = Missing Value Source: NWS Daily Summary

Daily Weather History Graph

Daily Weather History Graph

Search for Another Location

Airport or City:

Trip Planner

Search our weather history database for the weather conditions in past years. The results will help you decide how hot, cold, wet, or windy it might be!

Date:

Astronomy

Apr. 20, 2014 Rise Set
Actual Time 6:12 AM CDT 7:19 PM CDT
Civil Twilight 5:46 AM CDT 7:44 PM CDT
Nautical Twilight 5:16 AM CDT 8:14 PM CDT
Astronomical Twilight 4:45 AM CDT 8:45 PM CDT
Moon No Moon Rise 10:39 AM CDT (4/20)
Length of Visible Light 13h 57m
Length of Day
13h 06m
Waning Gibbous, 68% of the Moon is Illuminated
Apr 20
Waning Gibbous
Apr 22
Last Quarter
Apr 29
New
May 6
First Quarter
May 14
Full

Hourly Weather History & Observations

Time (CDT) Temp. Dew Point Humidity Pressure Visibility Wind Dir Wind Speed Gust Speed Precip Events Conditions
12:56 AM 57.0 °F 53.1 °F 87% 30.12 in 10.0 mi East 4.6 mph - N/A   Clear
1:56 AM 55.9 °F 48.9 °F 77% 30.12 in 10.0 mi ENE 8.1 mph - N/A   Clear
2:56 AM 54.0 °F 48.0 °F 80% 30.12 in 10.0 mi ENE 3.5 mph - N/A   Clear
3:56 AM 53.1 °F 46.9 °F 80% 30.12 in 10.0 mi NE 5.8 mph - N/A   Clear
4:35 AM 53.6 °F 46.4 °F 77% 30.12 in 10.0 mi NE 5.8 mph - N/A   Mostly Cloudy
5:56 AM 55.0 °F 48.0 °F 77% 30.13 in 10.0 mi ENE 9.2 mph - N/A   Overcast
6:56 AM 55.0 °F 48.0 °F 77% 30.16 in 10.0 mi ENE 10.4 mph - N/A   Overcast
7:56 AM - - N/A% - 10.0 mi NE 10.4 mph - N/A   Unknown
8:56 AM 55.9 °F 48.9 °F 77% 30.20 in 10.0 mi ENE 10.4 mph - N/A   Overcast
9:56 AM 57.0 °F 48.9 °F 74% 30.22 in 10.0 mi East 11.5 mph - N/A   Overcast
10:56 AM 57.9 °F 50.0 °F 75% 30.22 in 10.0 mi ENE 8.1 mph - N/A   Overcast
11:56 AM 61.0 °F 51.1 °F 70% 30.21 in 10.0 mi ENE 11.5 mph - N/A   Overcast
12:56 PM 64.0 °F 51.1 °F 63% 30.18 in 10.0 mi NE 12.7 mph 18.4 mph N/A   Mostly Cloudy
1:22 PM 66.2 °F 51.8 °F 60% 30.19 in 10.0 mi NE 8.1 mph 19.6 mph N/A   Scattered Clouds
1:56 PM 68.0 °F 52.0 °F 56% 30.17 in 10.0 mi Variable 4.6 mph - N/A   Scattered Clouds
2:56 PM 70.0 °F 52.0 °F 53% 30.14 in 10.0 mi ENE 6.9 mph - N/A   Partly Cloudy
3:56 PM 72.0 °F 53.1 °F 51% 30.13 in 10.0 mi NE 8.1 mph - N/A   Clear
4:56 PM 73.0 °F 53.1 °F 49% 30.12 in 10.0 mi ENE 5.8 mph - N/A   Clear
5:56 PM 72.0 °F 53.1 °F 51% 30.11 in 10.0 mi ENE 4.6 mph - N/A   Clear
6:56 PM 69.1 °F 54.0 °F 58% 30.10 in 10.0 mi Calm Calm - N/A   Clear
7:56 PM 64.0 °F 55.9 °F 75% 30.12 in 10.0 mi Calm Calm - N/A   Clear
8:56 PM 61.0 °F 55.9 °F 83% 30.13 in 10.0 mi South 3.5 mph - N/A   Clear
9:56 PM 60.1 °F 55.0 °F 83% 30.14 in 10.0 mi Calm Calm - N/A   Clear
10:56 PM 57.9 °F 54.0 °F 87% 30.14 in 10.0 mi Calm Calm - N/A   Clear
11:56 PM 55.9 °F 53.1 °F 90% 30.13 in 10.0 mi Calm Calm - N/A   Clear